TimeEST,TemperatureF,Dew PointF,Humidity,Sea Level PressureIn,VisibilityMPH,Wind Direction,Wind SpeedMPH,Gust SpeedMPH,PrecipitationIn,Events,Conditions,WindDirDegrees,DateUTC
12:53 AM,30.9,17.1,57,29.93,10.0,West,6.9,-,N/A,,Clear,270,2014-01-18 05:53:00
1:53 AM,32.0,18.0,56,29.93,10.0,WNW,10.4,-,N/A,,Overcast,290,2014-01-18 06:53:00
2:53 AM,30.0,8.1,40,29.95,10.0,West,13.8,20.7,N/A,,Scattered Clouds,280,2014-01-18 07:53:00
3:53 AM,28.0,8.1,43,29.98,10.0,West,11.5,19.6,N/A,,Clear,280,2014-01-18 08:53:00
4:53 AM,27.0,7.0,43,29.99,10.0,West,9.2,-,N/A,,Clear,270,2014-01-18 09:53:00
5:53 AM,26.1,8.1,47,30.00,10.0,West,5.8,-,N/A,,Clear,280,2014-01-18 10:53:00
6:53 AM,24.1,9.0,53,30.01,10.0,Calm,Calm,-,N/A,,Clear,0,2014-01-18 11:53:00
7:53 AM,24.1,9.0,53,30.05,10.0,Calm,Calm,-,N/A,,Clear,0,2014-01-18 12:53:00
8:53 AM,28.0,12.0,51,30.07,10.0,Calm,Calm,-,N/A,,Clear,0,2014-01-18 13:53:00
9:53 AM,30.9,12.0,46,30.10,10.0,WSW,9.2,-,N/A,,Clear,240,2014-01-18 14:53:00
10:53 AM,33.1,10.9,40,30.12,10.0,WSW,9.2,-,N/A,,Clear,250,2014-01-18 15:53:00
11:53 AM,37.0,12.9,37,30.10,10.0,West,8.1,-,N/A,,Clear,280,2014-01-18 16:53:00
12:53 PM,37.9,12.0,35,30.05,10.0,West,8.1,-,N/A,,Clear,280,2014-01-18 17:53:00
1:53 PM,39.9,12.0,32,30.03,10.0,Variable,5.8,-,N/A,,Clear,0,2014-01-18 18:53:00
2:53 PM,42.1,12.9,31,30.01,10.0,WSW,12.7,-,N/A,,Clear,250,2014-01-18 19:53:00
3:53 PM,42.1,12.0,29,30.02,10.0,SW,15.0,20.7,N/A,,Clear,220,2014-01-18 20:53:00
4:53 PM,39.0,12.0,33,30.01,10.0,SW,12.7,-,N/A,,Clear,220,2014-01-18 21:53:00
5:53 PM,37.0,12.0,36,30.02,10.0,SW,13.8,18.4,N/A,,Clear,230,2014-01-18 22:53:00
6:53 PM,35.1,10.9,37,30.02,10.0,SW,8.1,-,N/A,,Clear,220,2014-01-18 23:53:00
7:53 PM,33.1,12.0,42,30.01,10.0,SW,10.4,-,N/A,,Clear,220,2014-01-19 00:53:00
8:53 PM,33.1,12.0,42,30.00,10.0,SSW,9.2,-,N/A,,Clear,210,2014-01-19 01:53:00
9:53 PM,30.9,12.9,47,30.03,10.0,SW,6.9,-,N/A,,Clear,230,2014-01-19 02:53:00
10:53 PM,32.0,12.0,44,30.01,10.0,SW,5.8,-,N/A,,Mostly Cloudy,220,2014-01-19 03:53:00
11:53 PM,32.0,12.0,44,29.99,10.0,SSW,3.5,-,N/A,,Clear,200,2014-01-19 04:53:00